Location: Saint-Palais-sur-Mer
(45.6429°N, 1.0859°W)
Time: 12:12:09
(UTC+01:00)

ISS - Visible Passes

Search period start: 10 December 2019 00:00
Search period end: 20 December 2019 00:00
Orbit: 411 x 421 km, 51.6° (Epoch: 10 December)

Date Brightness Start Highest point End Pass type
(mag) Time Alt. Az. Time Alt. Az. Time Alt. Az.
10 Dec -2.9 18:24:37 10° WNW 18:27:54 53° SW 18:31:11 10° SE visible
11 Dec -0.6 19:13:59 10° WSW 19:15:44 14° SW 19:17:30 10° SSW visible
12 Dec -1.0 18:24:47 10° W 18:27:27 22° SW 18:30:05 10° S visible
19 Dec -0.2 07:55:35 10° SSE 07:57:05 12° SE 07:58:35 10° ESE visible
